Hourly Data Report for December 06, 2011

HALIFAX STANFIELD INT'L A
NOVA SCOTIA

44°52'48.060" N
63°30'00.050" W
145.40 m
8202250
71395
YHZ

Download Data

Hourly Data (December 2011)
Hourly Data Report for December 6, 2011
TIME
LST
Temp Definition
°C
Dew Point Definition
°C
Rel Hum Definition
%
Precip. Amount Definition
mm

Wind Dir Definition
10's deg

Wind Spd Definition
km/h
Visibility Definition
km
Stn Press Definition
kPa
Hmdx Definition


Wind Chill Definition


Weather Definition


00:00 8.5 8.1 97   26 7 24.1 100.74     Mostly Cloudy
01:00 7.5 7.4 99   18 7 24.1 100.67     Mainly Clear
02:00 6.2 6.2 100   19 11 1.6 100.64     Fog
03:00 5.8 5.8 100   19 11 1.2 100.60     Fog
04:00 8.0 7.9 99   20 15 0.8 100.55     Fog
05:00 8.6 8.6 100   19 19 0.8 100.47     Fog
06:00 8.2 8.2 100   19 19 2.4 100.45     Fog
07:00 8.2 8.1 99   19 20 6.4 100.43     Fog
08:00 8.0 8.0 100   20 24 6.4 100.42     Fog
09:00 8.6 8.6 100   20 20 9.7 100.41     Fog
10:00 9.7 9.7 100   21 24 19.3 100.37     Cloudy
11:00 11.5 10.2 92   21 30 24.1 100.34     Cloudy
12:00 11.7 10.0 89   21 22 24.1 100.27     Cloudy
13:00 11.6 10.2 91   20 24 24.1 100.17     Rain Showers
14:00 11.6 10.0 90   20 22 24.1 100.14     Cloudy
15:00 11.8 10.3 91   20 28 24.1 100.07     Mostly Cloudy
16:00 11.9 10.5 91   21 33 24.1 100.05     Cloudy
17:00 11.6 10.9 95   21 33 24.1 100.02     Rain Showers
18:00 11.1 10.8 98   20 32 24.1 99.97     Cloudy
19:00 10.8 10.6 99   20 37 16.1 99.88     Cloudy
20:00 10.4 10.3 99   20 30 2.4 99.84     Fog
21:00 10.4 10.4 100   20 35 1.2 99.80     Fog
22:00 10.7 10.7 100   21 32 2.4 99.75     Rain Showers, Fog
23:00 10.6 10.6 100   21 22 3.2 99.71     Rain, Fog

Notes on Data Quality.

Legend

  • E = Estimated
  • M = Missing
  • NA = Not Available*
  • [empty] = Indicates an unobserved value
Date modified: